Location: ???? ????
(41.4149°N, 22.8816°E)
Time: 14:36:32
(UTC+00:00)

Cosmos 1864 Rocket - Pass Details

Date: 14 July 2020
Orbit: 951 x 997 km, 82.9° (Epoch: 04 August)

Event Time Altitude Azimuth Distance (km) Brightness Sun altitude
Exits shadow 00:17:41 40° 173° (S) 1,373 4.9 -22.6°
Maximum altitude 00:20:02 77° 95° (E) 980 4.5 -22.4°
Drops below altitude 10° 00:26:09 10° 10° (N) 2,686 7.8 -21.8°
Sets 00:28:39 0° 10° (N) 3,637 8.8 -21.6°
